Zurück zum Katalog

ONEWEB-0389

AktivKommunikationPO
NORAD 50469·PAYLOAD·🇬🇧 United Kingdom

Gestartet Dec 27, 2021 von Baikonur Cosmodrome

Loading…

Nächste Überflüge (nächste 24 Stunden)

TLE

AktuellSource: CelesTrak SupGP

Epoche: Sep 14, 2026, 18:01 UTC

1 50469C 21132A   26257.75118472  .00001021  00000+0  26323-2 0  2578
2 50469  87.9200 348.0822 0002164 104.3797   8.1465 13.17648528    13

Verfolge ONEWEB-0389 in Echtzeit mit AllMySat

Download on the App Store